| time (UTC) | temp C | wind direction | speed KPH | gust KPH | rain 1hr cm | rain 24hr cm | rain mn cm | humidity % | barometer mb |
| 20260507021919 | 23 | 14 | 0.0 | 0.0 | 0.00 | 0.00 | 0.00 | 46 | 1015.6 |
| 20260507021414 | 24 | 14 | 1.6 | 1.6 | 0.00 | 0.00 | 0.00 | 45 | 1015.7 |
| 20260507020912 | 24 | 295 | 0.0 | 0.0 | 0.00 | 0.00 | 0.00 | 43 | 1015.5 |
| 20260507020409 | 24 | 273 | 1.6 | 1.6 | 0.00 | 0.00 | 0.00 | 43 | 1015.7 |
| 20260507015906 | 24 | 283 | 1.6 | 3.2 | 0.00 | 0.00 | 0.00 | 44 | 1015.6 |
| 20260507015404 | 24 | 258 | 4.8 | 6.4 | 0.00 | 0.00 | 0.00 | 44 | 1015.8 |
| 20260507014900 | 24 | 260 | 6.4 | 8.0 | 0.00 | 0.00 | 0.00 | 43 | 1015.7 |
| 20260507014356 | 24 | 260 | 6.4 | 6.4 | 0.00 | 0.00 | 0.00 | 42 | 1015.6 |
| 20260507013853 | 25 | 257 | 3.2 | 3.2 | 0.00 | 0.00 | 0.00 | 42 | 1015.8 |
| 20260507013350 | 25 | 265 | 1.6 | 1.6 | 0.00 | 0.00 | 0.00 | 42 | 1015.7 |
| 20260507012848 | 25 | 222 | 3.2 | 3.2 | 0.00 | 0.00 | 0.00 | 42 | 1015.8 |
| 20260507012343 | 25 | 257 | 4.8 | 8.0 | 0.00 | 0.00 | 0.00 | 43 | 1015.6 |
| 20260507011841 | 25 | 233 | 3.2 | 3.2 | 0.00 | 0.00 | 0.00 | 42 | 1015.8 |
| 20260507011337 | 25 | 267 | 0.0 | 0.0 | 0.00 | 0.00 | 0.00 | 42 | 1015.7 |
| 20260507010832 | 25 | 227 | 3.2 | 6.4 | 0.00 | 0.00 | 0.00 | 41 | 1015.8 |
| 20260507010328 | 25 | 247 | 4.8 | 6.4 | 0.00 | 0.00 | 0.00 | 42 | 1015.8 |
| 20260507005825 | 25 | 275 | 4.8 | 6.4 | 0.00 | 0.00 | 0.00 | 41 | 1015.7 |
| 20260507005322 | 25 | 248 | 3.2 | 3.2 | 0.00 | 0.00 | 0.00 | 41 | 1015.7 |
| 20260507004819 | 25 | 291 | 0.0 | 0.0 | 0.00 | 0.00 | 0.00 | 41 | 1015.7 |
| 20260507004316 | 25 | 46 | 1.6 | 3.2 | 0.00 | 0.00 | 0.00 | 41 | 1015.5 |
| 20260507003813 | 25 | 281 | 8.0 | 9.7 | 0.00 | 0.00 | 0.00 | 41 | 1015.7 |
| 20260507003308 | 25 | 245 | 4.8 | 6.4 | 0.00 | 0.00 | 0.00 | 40 | 1015.7 |
| 20260507002803 | 25 | 25 | 3.2 | 6.4 | 0.00 | 0.00 | 0.00 | 41 | 1015.8 |
| 20260507002300 | 25 | 238 | 3.2 | 3.2 | 0.00 | 0.00 | 0.00 | 41 | 1015.8 |
| 20260507001757 | 26 | 334 | 0.0 | 1.6 | 0.00 | 0.00 | 0.00 | 40 | 1015.8 |
| 20260507001254 | 25 | 320 | 0.0 | 1.6 | 0.00 | 0.00 | 0.00 | 39 | 1015.7 |
| 20260507000750 | 25 | 244 | 3.2 | 3.2 | 0.00 | 0.00 | 0.00 | 41 | 1015.8 |
| 20260507000246 | 25 | 266 | 3.2 | 3.2 | 0.00 | 0.00 | 0.00 | 42 | 1015.8 |
| 20260506235743 | 25 | 254 | 8.0 | 11.3 | 0.00 | 0.00 | 0.00 | 41 | 1015.5 |
| 20260506235238 | 25 | 249 | 6.4 | 8.0 | 0.00 | 0.00 | 0.00 | 40 | 1015.8 |
| 20260506234736 | 25 | 273 | 3.2 | 3.2 | 0.00 | 0.00 | 0.00 | 41 | 1015.8 |
| 20260506234233 | 25 | 262 | 4.8 | 6.4 | 0.00 | 0.00 | 0.00 | 40 | 1015.8 |
| 20260506233730 | 25 | 346 | 1.6 | 1.6 | 0.00 | 0.00 | 0.00 | 40 | 1015.7 |
| 20260506233227 | 25 | 272 | 1.6 | 1.6 | 0.00 | 0.00 | 0.00 | 40 | 1015.8 |
| 20260506232724 | 25 | 286 | 9.7 | 11.3 | 0.00 | 0.00 | 0.00 | 39 | 1015.9 |
| 20260506232218 | 25 | 274 | 1.6 | 1.6 | 0.00 | 0.00 | 0.00 | 40 | 1015.9 |
| 20260506231716 | 25 | 357 | 3.2 | 3.2 | 0.00 | 0.00 | 0.00 | 39 | 1015.9 |
| 20260506231214 | 25 | 10 | 1.6 | 3.2 | 0.00 | 0.00 | 0.00 | 40 | 1016.0 |
| 20260506230710 | 25 | 57 | 3.2 | 3.2 | 0.00 | 0.00 | 0.00 | 39 | 1016.1 |
| 20260506230208 | 25 | 69 | 4.8 | 8.0 | 0.00 | 0.00 | 0.00 | 40 | 1015.9 |
| 20260506225704 | 25 | 23 | 3.2 | 3.2 | 0.00 | 0.00 | 0.00 | 41 | 1016.1 |
| 20260506225201 | 25 | 246 | 1.6 | 3.2 | 0.00 | 0.00 | 0.00 | 41 | 1016.4 |
| 20260506224657 | 25 | 263 | 3.2 | 3.2 | 0.00 | 0.00 | 0.00 | 40 | 1016.3 |
| 20260506224154 | 25 | 210 | 3.2 | 3.2 | 0.00 | 0.00 | 0.00 | 40 | 1016.4 |
| 20260506223650 | 25 | 16 | 1.6 | 1.6 | 0.00 | 0.00 | 0.00 | 41 | 1016.4 |
| 20260506223146 | 25 | 241 | 3.2 | 6.4 | 0.00 | 0.00 | 0.00 | 41 | 1016.6 |
| 20260506222643 | 25 | 251 | 1.6 | 1.6 | 0.00 | 0.00 | 0.00 | 43 | 1016.6 |
| 20260506222139 | 24 | 249 | 1.6 | 3.2 | 0.00 | 0.00 | 0.00 | 41 | 1016.7 |
| 20260506221637 | 24 | 264 | 6.4 | 8.0 | 0.00 | 0.00 | 0.00 | 41 | 1016.6 |
| 20260506221135 | 23 | 55 | 1.6 | 3.2 | 0.00 | 0.00 | 0.00 | 42 | 1016.8 |
| 20260506220632 | 23 | 280 | 0.0 | 1.6 | 0.00 | 0.00 | 0.00 | 42 | 1016.7 |
| 20260506220127 | 23 | 41 | 4.8 | 8.0 | 0.00 | 0.00 | 0.00 | 41 | 1016.9 |
| 20260506215624 | 23 | 220 | 3.2 | 3.2 | 0.00 | 0.00 | 0.00 | 42 | 1017.0 |
| 20260506215119 | 23 | 246 | 3.2 | 6.4 | 0.00 | 0.00 | 0.00 | 41 | 1017.1 |
| 20260506214616 | 24 | 278 | 1.6 | 1.6 | 0.00 | 0.00 | 0.00 | 42 | 1017.1 |
| 20260506214114 | 25 | 275 | 3.2 | 3.2 | 0.00 | 0.00 | 0.00 | 40 | 1017.1 |
| 20260506213612 | 25 | 269 | 1.6 | 1.6 | 0.00 | 0.00 | 0.00 | 42 | 1017.5 |
| 20260506213109 | 23 | 0 | 1.6 | 1.6 | 0.00 | 0.00 | 0.00 | 40 | 1017.2 |
| 20260506212606 | 23 | 254 | 6.4 | 9.7 | 0.00 | 0.00 | 0.00 | 41 | 1017.3 |
| 20260506212101 | 24 | 278 | 1.6 | 1.6 | 0.00 | 0.00 | 0.00 | 41 | 1017.4 |
| 20260506211557 | 24 | 318 | 0.0 | 1.6 | 0.00 | 0.00 | 0.00 | 40 | 1017.5 |
| 20260506211054 | 23 | 56 | 4.8 | 6.4 | 0.00 | 0.00 | 0.00 | 40 | 1017.4 |
| 20260506210550 | 23 | 302 | 3.2 | 3.2 | 0.00 | 0.00 | 0.00 | 41 | 1017.5 |
| 20260506210047 | 23 | 308 | 0.0 | 1.6 | 0.00 | 0.00 | 0.00 | 41 | 1017.6 |
| 20260506205544 | 24 | 135 | 0.0 | 1.6 | 0.00 | 0.00 | 0.00 | 40 | 1017.6 |
| 20260506205039 | 23 | 268 | 1.6 | 1.6 | 0.00 | 0.00 | 0.00 | 41 | 1017.7 |
| 20260506204537 | 23 | 23 | 3.2 | 3.2 | 0.00 | 0.00 | 0.00 | 40 | 1017.6 |
| 20260506204034 | 23 | 46 | 1.6 | 3.2 | 0.00 | 0.00 | 0.00 | 40 | 1017.6 |
| 20260506203532 | 23 | 42 | 1.6 | 1.6 | 0.00 | 0.00 | 0.00 | 40 | 1017.6 |
| 20260506203028 | 23 | 334 | 3.2 | 3.2 | 0.00 | 0.00 | 0.00 | 43 | 1018.0 |
| 20260506202526 | 22 | 316 | 1.6 | 1.6 | 0.00 | 0.00 | 0.00 | 43 | 1017.9 |
| 20260506202022 | 22 | 246 | 1.6 | 3.2 | 0.00 | 0.00 | 0.00 | 44 | 1017.9 |
| 20260506201520 | 23 | 269 | 6.4 | 8.0 | 0.00 | 0.00 | 0.00 | 41 | 1018.0 |
| 20260506201016 | 22 | 251 | 4.8 | 6.4 | 0.00 | 0.00 | 0.00 | 44 | 1018.2 |
| 20260506200512 | 22 | 246 | 3.2 | 3.2 | 0.00 | 0.00 | 0.00 | 47 | 1018.0 |
| 20260506200009 | 21 | 224 | 0.0 | 0.0 | 0.00 | 0.00 | 0.00 | 48 | 1018.1 |
| 20260506195507 | 22 | 261 | 4.8 | 6.4 | 0.00 | 0.00 | 0.00 | 47 | 1018.4 |
| 20260506195002 | 22 | 49 | 4.8 | 6.4 | 0.00 | 0.00 | 0.00 | 46 | 1018.3 |
| 20260506194500 | 22 | 21 | 3.2 | 3.2 | 0.00 | 0.00 | 0.00 | 46 | 1018.2 |
| 20260506193956 | 22 | 5 | 3.2 | 3.2 | 0.00 | 0.00 | 0.00 | 46 | 1018.6 |
| 20260506193454 | 22 | 290 | 1.6 | 1.6 | 0.00 | 0.00 | 0.00 | 47 | 1018.5 |
| 20260506192950 | 22 | 264 | 1.6 | 3.2 | 0.00 | 0.00 | 0.00 | 48 | 1018.7 |
| 20260506192448 | 22 | 281 | 3.2 | 6.4 | 0.00 | 0.00 | 0.00 | 45 | 1018.3 |
| 20260506191944 | 21 | 128 | 0.0 | 1.6 | 0.00 | 0.00 | 0.00 | 48 | 1018.7 |
| 20260506191440 | 21 | 280 | 8.0 | 9.7 | 0.00 | 0.00 | 0.00 | 49 | 1018.7 |
| 20260506190937 | 21 | 47 | 1.6 | 3.2 | 0.00 | 0.00 | 0.00 | 50 | 1018.8 |
| 20260506190434 | 20 | 230 | 3.2 | 3.2 | 0.00 | 0.00 | 0.00 | 51 | 1018.8 |
| 20260506185931 | 21 | 255 | 1.6 | 6.4 | 0.00 | 0.00 | 0.00 | 50 | 1018.7 |
| 20260506185428 | 20 | 239 | 6.4 | 8.0 | 0.00 | 0.00 | 0.00 | 52 | 1018.8 |
| 20260506184925 | 21 | 239 | 4.8 | 6.4 | 0.00 | 0.00 | 0.00 | 51 | 1019.0 |
| 20260506184422 | 21 | 278 | 4.8 | 6.4 | 0.00 | 0.00 | 0.00 | 52 | 1018.9 |
| 20260506183919 | 21 | 33 | 0.0 | 0.0 | 0.00 | 0.00 | 0.00 | 49 | 1018.8 |
| 20260506183414 | 20 | 275 | 3.2 | 3.2 | 0.00 | 0.00 | 0.00 | 51 | 1019.1 |
| 20260506182912 | 20 | 22 | 1.6 | 1.6 | 0.00 | 0.00 | 0.00 | 49 | 1019.1 |
| 20260506182409 | 20 | 248 | 1.6 | 1.6 | 0.00 | 0.00 | 0.00 | 53 | 1019.0 |
| 20260506181906 | 20 | 243 | 1.6 | 1.6 | 0.00 | 0.00 | 0.00 | 55 | 1019.1 |
| 20260506181404 | 20 | 276 | 3.2 | 6.4 | 0.00 | 0.00 | 0.00 | 56 | 1019.1 |
| 20260506180901 | 20 | 297 | 4.8 | 6.4 | 0.00 | 0.00 | 0.00 | 57 | 1018.9 |
| 20260506180357 | 20 | 310 | 3.2 | 3.2 | 0.00 | 0.00 | 0.00 | 55 | 1018.9 |
| 20260506175854 | 20 | 342 | 0.0 | 1.6 | 0.00 | 0.00 | 0.00 | 58 | 1019.1 |
| 20260506175350 | 18 | 261 | 1.6 | 3.2 | 0.00 | 0.00 | 0.00 | 59 | 1019.1 |
| 20260506174847 | 18 | 261 | 4.8 | 6.4 | 0.00 | 0.00 | 0.00 | 60 | 1019.2 |
| 20260506174345 | 18 | 228 | 1.6 | 3.2 | 0.00 | 0.00 | 0.00 | 60 | 1019.1 |
| 20260506173842 | 19 | 239 | 1.6 | 1.6 | 0.00 | 0.00 | 0.00 | 60 | 1019.3 |
| 20260506173339 | 18 | 63 | 1.6 | 1.6 | 0.00 | 0.00 | 0.00 | 61 | 1019.2 |
| 20260506172836 | 19 | 279 | 3.2 | 3.2 | 0.00 | 0.00 | 0.00 | 61 | 1019.0 |
| 20260506172333 | 18 | 2 | 0.0 | 1.6 | 0.00 | 0.00 | 0.00 | 61 | 1019.2 |
| 20260506171830 | 18 | 244 | 3.2 | 3.2 | 0.00 | 0.00 | 0.00 | 64 | 1019.2 |
| 20260506171327 | 17 | 274 | 3.2 | 3.2 | 0.00 | 0.00 | 0.00 | 67 | 1019.2 |
| 20260506170825 | 17 | 257 | 4.8 | 6.4 | 0.00 | 0.00 | 0.00 | 67 | 1019.2 |
| 20260506170320 | 17 | 321 | 3.2 | 3.2 | 0.00 | 0.00 | 0.00 | 67 | 1019.3 |
| 20260506165820 | 17 | 271 | 3.2 | 6.4 | 0.00 | 0.00 | 0.00 | 68 | 1019.3 |
| 20260506165317 | 17 | 26 | 0.0 | 1.6 | 0.00 | 0.00 | 0.00 | 68 | 1019.2 |
| 20260506164813 | 17 | 343 | 0.0 | 0.0 | 0.00 | 0.00 | 0.00 | 68 | 1019.2 |
| 20260506164310 | 17 | 266 | 1.6 | 1.6 | 0.00 | 0.00 | 0.00 | 68 | 1019.4 |
| 20260506163807 | 16 | 279 | 1.6 | 3.2 | 0.00 | 0.00 | 0.00 | 70 | 1019.4 |
| 20260506163302 | 16 | 0 | 0.0 | 0.0 | 0.00 | 0.00 | 0.00 | 71 | 1019.4 |
| 20260506162758 | 16 | 244 | 1.6 | 1.6 | 0.00 | 0.00 | 0.00 | 72 | 1019.3 |
| 20260506162256 | 16 | 258 | 1.6 | 1.6 | 0.00 | 0.00 | 0.00 | 71 | 1019.4 |
| 20260506161753 | 15 | 284 | 3.2 | 3.2 | 0.00 | 0.00 | 0.00 | 73 | 1019.5 |
| 20260506161250 | 16 | 342 | 1.6 | 1.6 | 0.00 | 0.00 | 0.00 | 73 | 1019.5 |
| 20260506160748 | 15 | 43 | 0.0 | 1.6 | 0.00 | 0.00 | 0.00 | 75 | 1019.5 |
| 20260506160244 | 15 | 234 | 1.6 | 1.6 | 0.00 | 0.00 | 0.00 | 75 | 1019.6 |
| 20260506155743 | 15 | 291 | 3.2 | 3.2 | 0.00 | 0.00 | 0.00 | 76 | 1019.6 |
| 20260506155239 | 15 | 134 | 1.6 | 1.6 | 0.00 | 0.00 | 0.00 | 76 | 1019.4 |
| 20260506153347 | 13 | 259 | 4.8 | 6.4 | 0.00 | 0.00 | 0.00 | 79 | 1019.7 |
| 20260506152843 | 13 | 280 | 3.2 | 3.2 | 0.00 | 0.00 | 0.00 | 79 | 1019.6 |
| 20260506152341 | 13 | 255 | 3.2 | 3.2 | 0.00 | 0.00 | 0.00 | 79 | 1019.4 |
| 20260506151839 | 13 | 269 | 4.8 | 8.0 | 0.00 | 0.00 | 0.00 | 79 | 1019.6 |
| 20260506151335 | 13 | 358 | 0.0 | 0.0 | 0.00 | 0.00 | 0.00 | 81 | 1019.5 |
| 20260506150833 | 13 | 35 | 0.0 | 0.0 | 0.00 | 0.00 | 0.00 | 81 | 1019.4 |
| 20260506150329 | 12 | 290 | 1.6 | 1.6 | 0.00 | 0.00 | 0.00 | 81 | 1019.5 |
| 20260506145826 | 12 | 269 | 1.6 | 1.6 | 0.00 | 0.00 | 0.00 | 82 | 1019.7 |
| 20260506145322 | 12 | 267 | 4.8 | 6.4 | 0.00 | 0.00 | 0.00 | 83 | 1019.5 |
| 20260506144820 | 12 | 256 | 3.2 | 3.2 | 0.00 | 0.00 | 0.00 | 83 | 1019.5 |
| 20260506144317 | 12 | 350 | 0.0 | 0.0 | 0.00 | 0.00 | 0.00 | 84 | 1019.6 |
| 20260506143815 | 12 | 273 | 3.2 | 3.2 | 0.00 | 0.00 | 0.00 | 85 | 1019.4 |
| 20260506143312 | 11 | 278 | 0.0 | 0.0 | 0.00 | 0.00 | 0.00 | 86 | 1019.4 |
| 20260506142810 | 11 | 236 | 1.6 | 3.2 | 0.00 | 0.00 | 0.00 | 86 | 1019.4 |
| 20260506142308 | 11 | 273 | 0.0 | 1.6 | 0.00 | 0.00 | 0.00 | 86 | 1019.2 |
| 20260506141806 | 11 | 328 | 0.0 | 0.0 | 0.00 | 0.00 | 0.00 | 87 | 1019.2 |
| 20260506141303 | 11 | 18 | 0.0 | 0.0 | 0.00 | 0.00 | 0.00 | 88 | 1019.2 |
| 20260506140801 | 11 | 17 | 0.0 | 0.0 | 0.00 | 0.00 | 0.00 | 88 | 1019.3 |
| 20260506140258 | 11 | 20 | 0.0 | 0.0 | 0.00 | 0.00 | 0.00 | 88 | 1019.1 |
| 20260506135755 | 11 | 356 | 0.0 | 0.0 | 0.00 | 0.00 | 0.00 | 88 | 1019.0 |
| 20260506135251 | 10 | 292 | 0.0 | 0.0 | 0.00 | 0.00 | 0.00 | 88 | 1018.9 |
| 20260506134748 | 10 | 286 | 1.6 | 1.6 | 0.00 | 0.00 | 0.00 | 88 | 1019.1 |
| 20260506134244 | 10 | 8 | 0.0 | 0.0 | 0.00 | 0.00 | 0.00 | 88 | 1018.9 |
| 20260506133741 | 10 | 2 | 0.0 | 0.0 | 0.00 | 0.00 | 0.00 | 88 | 1018.9 |
| 20260506133238 | 10 | 313 | 0.0 | 0.0 | 0.00 | 0.00 | 0.00 | 88 | 1018.6 |
| 20260506132735 | 10 | 274 | 0.0 | 0.0 | 0.00 | 0.00 | 0.00 | 88 | 1018.9 |
| 20260506132232 | 10 | 284 | 0.0 | 0.0 | 0.00 | 0.00 | 0.00 | 88 | 1018.7 |
| 20260506131730 | 10 | 284 | 0.0 | 0.0 | 0.00 | 0.00 | 0.00 | 88 | 1018.8 |
| 20260506131226 | 10 | 284 | 0.0 | 0.0 | 0.00 | 0.00 | 0.00 | 88 | 1018.5 |
| 20260506130723 | 10 | 284 | 0.0 | 0.0 | 0.00 | 0.00 | 0.00 | 88 | 1018.5 |
| 20260506130220 | 10 | 281 | 0.0 | 0.0 | 0.00 | 0.00 | 0.00 | 88 | 1018.5 |
| 20260506125718 | 10 | 275 | 1.6 | 1.6 | 0.00 | 0.00 | 0.00 | 88 | 1018.3 |
| 20260506125215 | 10 | 293 | 0.0 | 0.0 | 0.00 | 0.00 | 0.00 | 88 | 1018.2 |
| 20260506124713 | 10 | 281 | 1.6 | 1.6 | 0.00 | 0.00 | 0.00 | 88 | 1018.3 |
| 20260506124211 | 10 | 295 | 1.6 | 1.6 | 0.00 | 0.00 | 0.00 | 88 | 1018.3 |
| 20260506123708 | 10 | 26 | 0.0 | 0.0 | 0.00 | 0.00 | 0.00 | 88 | 1018.3 |
| 20260506123207 | 10 | 26 | 0.0 | 0.0 | 0.00 | 0.00 | 0.00 | 88 | 1018.2 |
| 20260506122703 | 10 | 26 | 0.0 | 0.0 | 0.00 | 0.00 | 0.00 | 88 | 1018.2 |
| 20260506122201 | 10 | 26 | 0.0 | 0.0 | 0.00 | 0.00 | 0.00 | 88 | 1018.2 |
| 20260506121658 | 10 | 26 | 0.0 | 0.0 | 0.00 | 0.00 | 0.00 | 88 | 1018.2 |
| 20260506121154 | 10 | 26 | 0.0 | 0.0 | 0.00 | 0.00 | 0.00 | 88 | 1018.1 |
| 20260506120653 | 10 | 26 | 0.0 | 0.0 | 0.00 | 0.00 | 0.00 | 88 | 1018.0 |
| 20260506120150 | 10 | 26 | 0.0 | 0.0 | 0.00 | 0.00 | 0.00 | 88 | 1018.1 |
| 20260506115648 | 10 | 26 | 0.0 | 0.0 | 0.00 | 0.00 | 0.00 | 87 | 1018.2 |
| 20260506115146 | 10 | 26 | 0.0 | 0.0 | 0.00 | 0.00 | 0.00 | 87 | 1018.1 |
| 20260506114643 | 10 | 26 | 0.0 | 0.0 | 0.00 | 0.00 | 0.00 | 87 | 1018.1 |
| 20260506114141 | 10 | 26 | 0.0 | 0.0 | 0.00 | 0.00 | 0.00 | 87 | 1018.1 |
| 20260506113639 | 10 | 25 | 0.0 | 0.0 | 0.00 | 0.00 | 0.00 | 87 | 1018.0 |
| 20260506113136 | 10 | 25 | 0.0 | 0.0 | 0.00 | 0.00 | 0.00 | 87 | 1018.0 |
| 20260506112632 | 10 | 26 | 0.0 | 0.0 | 0.00 | 0.00 | 0.00 | 87 | 1017.9 |
| 20260506112130 | 10 | 26 | 0.0 | 0.0 | 0.00 | 0.00 | 0.00 | 87 | 1017.7 |
| 20260506111627 | 10 | 25 | 0.0 | 0.0 | 0.00 | 0.00 | 0.00 | 87 | 1017.7 |
| 20260506111125 | 10 | 25 | 0.0 | 0.0 | 0.00 | 0.00 | 0.00 | 87 | 1017.8 |
| 20260506110622 | 11 | 25 | 0.0 | 0.0 | 0.00 | 0.00 | 0.00 | 87 | 1017.8 |
| 20260506110119 | 11 | 27 | 0.0 | 0.0 | 0.00 | 0.00 | 0.00 | 87 | 1017.9 |
| 20260506105616 | 11 | 12 | 0.0 | 0.0 | 0.00 | 0.00 | 0.00 | 87 | 1017.9 |
| 20260506105113 | 11 | 4 | 0.0 | 0.0 | 0.00 | 0.00 | 0.00 | 86 | 1017.6 |
| 20260506104611 | 11 | 4 | 0.0 | 0.0 | 0.00 | 0.00 | 0.00 | 86 | 1017.6 |
| 20260506104108 | 11 | 4 | 0.0 | 0.0 | 0.00 | 0.00 | 0.00 | 86 | 1017.6 |
| 20260506103605 | 11 | 3 | 0.0 | 0.0 | 0.00 | 0.00 | 0.00 | 86 | 1017.7 |
| 20260506103102 | 11 | 3 | 0.0 | 0.0 | 0.00 | 0.00 | 0.00 | 86 | 1017.7 |
| 20260506102600 | 11 | 3 | 0.0 | 0.0 | 0.00 | 0.00 | 0.00 | 86 | 1017.7 |
| 20260506102057 | 11 | 3 | 0.0 | 0.0 | 0.00 | 0.00 | 0.00 | 86 | 1017.9 |
| 20260506101554 | 11 | 3 | 0.0 | 0.0 | 0.00 | 0.00 | 0.00 | 85 | 1017.6 |
| 20260506101051 | 11 | 3 | 0.0 | 0.0 | 0.00 | 0.00 | 0.00 | 85 | 1017.5 |
| 20260506100549 | 11 | 11 | 0.0 | 0.0 | 0.00 | 0.00 | 0.00 | 85 | 1017.6 |
| 20260506100047 | 11 | 11 | 0.0 | 0.0 | 0.00 | 0.00 | 0.00 | 85 | 1017.5 |
| 20260506095546 | 11 | 10 | 0.0 | 0.0 | 0.00 | 0.00 | 0.00 | 85 | 1017.5 |
| 20260506095042 | 11 | 10 | 0.0 | 0.0 | 0.00 | 0.00 | 0.00 | 84 | 1017.5 |
| 20260506094539 | 12 | 7 | 0.0 | 0.0 | 0.00 | 0.00 | 0.00 | 84 | 1017.4 |
| 20260506094037 | 12 | 336 | 0.0 | 0.0 | 0.00 | 0.00 | 0.00 | 84 | 1017.3 |
| 20260506093535 | 12 | 266 | 0.0 | 0.0 | 0.00 | 0.00 | 0.00 | 84 | 1017.3 |
| 20260506093032 | 12 | 266 | 0.0 | 0.0 | 0.00 | 0.00 | 0.00 | 84 | 1017.4 |
| 20260506092530 | 12 | 251 | 0.0 | 0.0 | 0.00 | 0.00 | 0.00 | 84 | 1017.4 |
| 20260506092027 | 12 | 259 | 0.0 | 0.0 | 0.00 | 0.00 | 0.00 | 84 | 1017.2 |
| 20260506091525 | 12 | 269 | 0.0 | 1.6 | 0.00 | 0.00 | 0.00 | 84 | 1017.2 |
| 20260506091022 | 12 | 244 | 1.6 | 1.6 | 0.00 | 0.00 | 0.00 | 85 | 1017.1 |
| 20260506090520 | 12 | 252 | 0.0 | 0.0 | 0.00 | 0.00 | 0.00 | 85 | 1017.2 |
| 20260506090016 | 11 | 310 | 0.0 | 0.0 | 0.00 | 0.00 | 0.00 | 84 | 1017.5 |
| 20260506085513 | 12 | 309 | 0.0 | 0.0 | 0.00 | 0.00 | 0.00 | 84 | 1017.5 |
| 20260506085009 | 12 | 16 | 0.0 | 0.0 | 0.00 | 0.00 | 0.00 | 84 | 1017.6 |
| 20260506084506 | 11 | 7 | 0.0 | 0.0 | 0.00 | 0.00 | 0.00 | 83 | 1017.7 |
| 20260506084002 | 11 | 7 | 0.0 | 0.0 | 0.00 | 0.00 | 0.00 | 83 | 1017.6 |
| 20260506083500 | 12 | 7 | 0.0 | 0.0 | 0.00 | 0.00 | 0.00 | 83 | 1017.5 |
| 20260506082957 | 12 | 7 | 0.0 | 0.0 | 0.00 | 0.00 | 0.00 | 82 | 1017.5 |
| 20260506082454 | 12 | 20 | 0.0 | 0.0 | 0.00 | 0.00 | 0.00 | 82 | 1017.5 |
| 20260506081949 | 12 | 21 | 0.0 | 0.0 | 0.00 | 0.00 | 0.00 | 82 | 1017.3 |
| 20260506081448 | 12 | 20 | 0.0 | 0.0 | 0.00 | 0.00 | 0.00 | 82 | 1017.6 |
| 20260506080945 | 12 | 20 | 0.0 | 0.0 | 0.00 | 0.00 | 0.00 | 81 | 1017.4 |
| 20260506080442 | 12 | 20 | 0.0 | 0.0 | 0.00 | 0.00 | 0.00 | 81 | 1017.6 |
| 20260506073426 | 12 | 276 | 0.0 | 0.0 | 0.00 | 0.00 | 0.00 | 80 | 1017.2 |
| 20260506072923 | 13 | 275 | 0.0 | 0.0 | 0.00 | 0.00 | 0.00 | 80 | 1017.1 |
| 20260506072420 | 13 | 338 | 1.6 | 1.6 | 0.00 | 0.00 | 0.00 | 80 | 1017.2 |
| 20260506071918 | 12 | 34 | 0.0 | 0.0 | 0.00 | 0.00 | 0.00 | 80 | 1016.9 |
| 20260506071416 | 12 | 27 | 0.0 | 0.0 | 0.00 | 0.00 | 0.00 | 79 | 1017.1 |
| 20260506070912 | 12 | 29 | 0.0 | 0.0 | 0.00 | 0.00 | 0.00 | 79 | 1017.1 |
| 20260506070409 | 13 | 29 | 0.0 | 0.0 | 0.00 | 0.00 | 0.00 | 79 | 1017.0 |
| 20260506062347 | 13 | 28 | 0.0 | 0.0 | 0.00 | 0.00 | 0.00 | 78 | 1016.4 |
| 20260506061842 | 13 | 28 | 0.0 | 0.0 | 0.00 | 0.00 | 0.00 | 78 | 1016.5 |
| 20260506061339 | 13 | 28 | 0.0 | 0.0 | 0.00 | 0.00 | 0.00 | 78 | 1016.7 |
| 20260506060837 | 13 | 119 | 0.0 | 0.0 | 0.00 | 0.00 | 0.00 | 78 | 1016.3 |
| 20260506060335 | 13 | 119 | 0.0 | 0.0 | 0.00 | 0.00 | 0.00 | 77 | 1016.3 |
| 20260506051307 | 15 | 309 | 0.0 | 0.0 | 0.00 | 0.00 | 0.00 | 74 | 1016.0 |
| 20260506050805 | 15 | 351 | 0.0 | 0.0 | 0.00 | 0.00 | 0.00 | 73 | 1015.9 |
| 20260506050302 | 15 | 254 | 0.0 | 0.0 | 0.00 | 0.00 | 0.00 | 73 | 1016.1 |
| 20260506044752 | 15 | 8 | 0.0 | 0.0 | 0.00 | 0.00 | 0.00 | 72 | 1015.9 |
| 20260506044250 | 15 | 30 | 0.0 | 0.0 | 0.00 | 0.00 | 0.00 | 72 | 1015.8 |
| 20260506043747 | 15 | 295 | 0.0 | 0.0 | 0.00 | 0.00 | 0.00 | 72 | 1015.7 |
| 20260506043244 | 15 | 274 | 1.6 | 1.6 | 0.00 | 0.00 | 0.00 | 71 | 1015.7 |
| 20260506042743 | 15 | 287 | 1.6 | 1.6 | 0.00 | 0.00 | 0.00 | 72 | 1015.5 |
| 20260506042241 | 15 | 58 | 0.0 | 0.0 | 0.00 | 0.00 | 0.00 | 73 | 1015.7 |
| 20260506041739 | 15 | 59 | 0.0 | 0.0 | 0.00 | 0.00 | 0.00 | 72 | 1015.7 |
| 20260506041236 | 15 | 59 | 0.0 | 0.0 | 0.00 | 0.00 | 0.00 | 71 | 1015.2 |
| 20260506040733 | 15 | 59 | 0.0 | 0.0 | 0.00 | 0.00 | 0.00 | 71 | 1015.3 |
| 20260506040230 | 15 | 59 | 0.0 | 0.0 | 0.00 | 0.00 | 0.00 | 70 | 1015.1 |
| 20260506035727 | 15 | 59 | 0.0 | 0.0 | 0.00 | 0.00 | 0.00 | 69 | 1015.2 |
| 20260506035224 | 15 | 59 | 0.0 | 0.0 | 0.00 | 0.00 | 0.00 | 68 | 1015.2 |
| 20260506034721 | 15 | 59 | 0.0 | 0.0 | 0.00 | 0.00 | 0.00 | 68 | 1015.0 |
| 20260506034218 | 15 | 59 | 0.0 | 0.0 | 0.00 | 0.00 | 0.00 | 67 | 1014.9 |
| 20260506033715 | 15 | 59 | 0.0 | 0.0 | 0.00 | 0.00 | 0.00 | 66 | 1014.7 |
| 20260506033212 | 15 | 60 | 0.0 | 0.0 | 0.00 | 0.00 | 0.00 | 65 | 1014.8 |
| 20260506032709 | 16 | 60 | 0.0 | 0.0 | 0.00 | 0.00 | 0.00 | 65 | 1014.8 |
| 20260506032206 | 16 | 60 | 0.0 | 0.0 | 0.00 | 0.00 | 0.00 | 64 | 1014.6 |
| 20260506031703 | 16 | 60 | 0.0 | 0.0 | 0.00 | 0.00 | 0.00 | 63 | 1014.5 |
| 20260506031200 | 16 | 57 | 0.0 | 1.6 | 0.00 | 0.00 | 0.00 | 62 | 1014.4 |
| 20260506030658 | 16 | 63 | 1.6 | 1.6 | 0.00 | 0.00 | 0.00 | 62 | 1014.3 |
| 20260506030155 | 16 | 53 | 0.0 | 0.0 | 0.00 | 0.00 | 0.00 | 61 | 1014.5 |
| 20260506025646 | 17 | 86 | 1.6 | 1.6 | 0.00 | 0.00 | 0.00 | 60 | 1014.3 |
| 20260506025142 | 17 | 23 | 0.0 | 0.0 | 0.00 | 0.00 | 0.00 | 59 | 1014.4 |
| 20260506024640 | 17 | 38 | 1.6 | 1.6 | 0.00 | 0.00 | 0.00 | 59 | 1014.2 |
| 20260506024136 | 17 | 358 | 0.0 | 0.0 | 0.00 | 0.00 | 0.00 | 59 | 1014.3 |
| 20260506023633 | 17 | 54 | 3.2 | 3.2 | 0.00 | 0.00 | 0.00 | 59 | 1014.0 |
| 20260506023130 | 17 | 17 | 0.0 | 0.0 | 0.00 | 0.00 | 0.00 | 58 | 1014.1 |
| 20260506022627 | 17 | 329 | 0.0 | 0.0 | 0.00 | 0.00 | 0.00 | 57 | 1014.1 |